Chignik, AK

2:22 AM AKDT on May 23, 2018 (GMT -0800)
Chignik

Weather History for PAJC - November, 2012

Change the Weather History Date:

Thursday, November 29, 2012

  Actual Average Record
Temperature  
Mean Temperature 28 °F -  
Max Temperature 33 °F 35 °F 51 °F (2007)
Min Temperature 23 °F 28 °F 21 °F (1996)
Degree Days  
Heating Degree Days 37    
Moisture  
Dew Point 7 °F    
Average Humidity 43    
Maximum Humidity 55    
Minimum Humidity 32    
Precipitation  
Precipitation 0.00 in - - ()
Sea Level Pressure  
Sea Level Pressure 29.69 in    
Wind  
Wind Speed 17 mph (West)    
Max Wind Speed 30 mph    
Max Gust Speed 39 mph    
Visibility 10 miles    
Events      
Averages and records for this station are not official NWS values.
T = Trace of Precipitation, MM = Missing Value Source: NWS Daily Summary

Daily Weather History Graph

Daily Weather History Graph

Search for Another Location

Airport or City:

Astronomy

Nov. 29, 2012 Rise Set
Actual Time 9:40 AM AKST 5:03 PM AKST
Civil Twilight 8:54 AM AKST 5:49 PM AKST
Nautical Twilight 8:06 AM AKST 6:37 PM AKST
Astronomical Twilight 7:20 AM AKST 7:22 PM AKST
Moon 6:15 PM AKST (11/29) 10:37 AM AKST (11/29)
Length of Visible Light 8h 55m
Length of Day
7h 23m
Full, 99% of the Moon is Illuminated
Nov 29
Full
Dec 6
Last Quarter
Dec 12
New
Dec 19
First Quarter
Dec 28
Full

Hourly Weather History & Observations

Time (AKST) Temp. Windchill Dew Point Humidity Pressure Visibility Wind Dir Wind Speed Gust Speed Precip Events Conditions
12:16 AM 33.8 °F 22.5 °F 17.6 °F 52% 29.74 in 10.0 mi West 19.6 mph 25.3 mph N/A   Clear
12:36 AM 33.8 °F 24.8 °F 14.0 °F 44% 29.74 in 10.0 mi West 12.7 mph 17.3 mph N/A   Clear
12:56 AM 33.8 °F 24.3 °F 12.2 °F 41% 29.74 in 10.0 mi West 13.8 mph 24.2 mph N/A   Clear
1:16 AM 33.8 °F 25.3 °F 10.4 °F 38% 29.73 in 10.0 mi West 11.5 mph 19.6 mph N/A   Clear
1:36 AM 33.8 °F 24.3 °F 6.8 °F 32% 29.73 in 10.0 mi West 13.8 mph - N/A   Clear
1:56 AM 33.8 °F 23.5 °F 8.6 °F 35% 29.71 in 10.0 mi WNW 16.1 mph 23.0 mph N/A   Partly Cloudy
2:16 AM 32.0 °F 22.5 °F 10.4 °F 41% 29.71 in 10.0 mi West 12.7 mph 20.7 mph N/A   Partly Cloudy
2:36 AM 32.0 °F 23.6 °F 10.4 °F 41% 29.72 in 10.0 mi West 10.4 mph 25.3 mph N/A   Clear
3:16 AM 32.0 °F 23.0 °F 8.6 °F 38% 29.70 in 10.0 mi West 11.5 mph 20.7 mph N/A   Clear
3:36 AM 32.0 °F 21.2 °F 10.4 °F 41% 29.71 in 10.0 mi WSW 16.1 mph 31.1 mph N/A   Clear
3:56 AM 32.0 °F 21.2 °F 10.4 °F 41% 29.71 in 10.0 mi WSW 16.1 mph 25.3 mph N/A   Clear
4:16 AM 32.0 °F 22.1 °F 10.4 °F 41% 29.71 in 10.0 mi West 13.8 mph 20.7 mph N/A   Clear
4:36 AM 32.0 °F 23.0 °F 12.2 °F 44% 29.70 in 10.0 mi WNW 11.5 mph 25.3 mph N/A   Clear
4:56 AM 30.2 °F 20.2 °F 14.0 °F 51% 29.69 in 10.0 mi West 12.7 mph 19.6 mph N/A   Clear
5:16 AM 30.2 °F 19.3 °F 15.8 °F 55% 29.69 in 10.0 mi West 15.0 mph 27.6 mph N/A   Clear
5:36 AM 30.2 °F 18.1 °F 14.0 °F 51% 29.66 in 10.0 mi West 18.4 mph 33.4 mph N/A   Clear
5:56 AM 30.2 °F 17.1 °F 14.0 °F 51% 29.66 in 10.0 mi West 21.9 mph 31.1 mph N/A   Clear
6:16 AM 28.4 °F 16.6 °F 8.6 °F 43% 29.68 in 10.0 mi West 16.1 mph 31.1 mph N/A   Clear
6:36 AM 26.6 °F 13.4 °F 3.2 °F 37% 29.69 in 10.0 mi West 18.4 mph 24.2 mph N/A   Clear
6:56 AM 24.8 °F 11.9 °F 6.8 °F 46% 29.69 in 10.0 mi West 16.1 mph 23.0 mph N/A   Clear
7:16 AM 24.8 °F 12.9 °F 5.0 °F 43% 29.70 in 10.0 mi West 13.8 mph 35.7 mph N/A   Clear
7:36 AM 23.0 °F 6.9 °F 8.6 °F 54% 29.70 in 10.0 mi West 24.2 mph 29.9 mph N/A   Clear
7:56 AM 23.0 °F 8.3 °F 6.8 °F 50% 29.70 in 10.0 mi West 19.6 mph 28.8 mph N/A   Clear
8:16 AM 23.0 °F 7.2 °F 8.6 °F 54% 29.71 in 10.0 mi SW 23.0 mph 31.1 mph N/A   Clear
8:36 AM 23.0 °F 6.9 °F 3.2 °F 43% 29.72 in 10.0 mi WSW 24.2 mph 29.9 mph N/A   Clear
8:56 AM 23.0 °F 6.9 °F 3.2 °F 43% 29.72 in 10.0 mi WSW 24.2 mph 33.4 mph N/A   Clear
9:16 AM 23.0 °F 7.6 °F 1.4 °F 39% 29.73 in 10.0 mi West 21.9 mph 33.4 mph N/A   Clear
9:36 AM 23.0 °F 9.2 °F 1.4 °F 39% 29.73 in 10.0 mi West 17.3 mph 25.3 mph N/A   Clear
9:56 AM 23.0 °F 10.1 °F -0.4 °F 36% 29.73 in 10.0 mi West 15.0 mph 25.3 mph N/A   Clear
10:16 AM 23.0 °F 9.6 °F 1.4 °F 39% 29.74 in 10.0 mi West 16.1 mph 26.5 mph N/A   Clear
10:36 AM 23.0 °F 9.2 °F -0.4 °F 36% 29.74 in 10.0 mi West 17.3 mph 23.0 mph N/A   Clear
10:56 AM 23.0 °F 9.2 °F -0.4 °F 36% 29.74 in 10.0 mi West 17.3 mph 25.3 mph N/A   Clear
11:16 AM 23.0 °F 9.2 °F 1.4 °F 39% 29.74 in 10.0 mi West 17.3 mph 27.6 mph N/A   Clear
11:36 AM 24.8 °F 9.6 °F 3.2 °F 40% 29.74 in 10.0 mi West 23.0 mph 28.8 mph N/A   Clear
11:56 AM 24.8 °F 9.3 °F 5.0 °F 43% 29.73 in 10.0 mi West 24.2 mph 31.1 mph N/A   Clear
12:16 PM 24.8 °F 9.6 °F 5.0 °F 43% 29.72 in 10.0 mi West 23.0 mph 31.1 mph N/A   Clear
12:36 PM 24.8 °F 9.3 °F 5.0 °F 43% 29.71 in 10.0 mi WSW 24.2 mph 32.2 mph N/A   Clear
12:56 PM 24.8 °F 11.5 °F 5.0 °F 43% 29.71 in 10.0 mi West 17.3 mph 31.1 mph N/A   Clear
1:16 PM 26.6 °F 12.0 °F 6.8 °F 43% 29.70 in 10.0 mi West 23.0 mph 31.1 mph N/A   Clear
1:36 PM 26.6 °F 13.4 °F 6.8 °F 43% 29.70 in 10.0 mi WSW 18.4 mph 25.3 mph N/A   Clear
1:56 PM 26.6 °F 13.1 °F 6.8 °F 43% 29.68 in 10.0 mi West 19.6 mph 32.2 mph N/A   Clear
2:16 PM 24.8 °F 10.0 °F 3.2 °F 40% 29.67 in 10.0 mi WNW 21.9 mph 29.9 mph N/A   Clear
2:36 PM 26.6 °F 13.1 °F 6.8 °F 43% 29.69 in 10.0 mi West 19.6 mph 29.9 mph N/A   Clear
2:56 PM 26.6 °F 11.4 °F 5.0 °F 40% 29.67 in 10.0 mi WSW 25.3 mph 31.1 mph N/A   Clear
3:16 PM 26.6 °F 14.3 °F 5.0 °F 40% 29.67 in 10.0 mi West 16.1 mph 24.2 mph N/A   Clear
3:36 PM 28.4 °F 17.5 °F 6.8 °F 40% 29.66 in 10.0 mi West 13.8 mph 23.0 mph N/A   Clear
3:56 PM 28.4 °F 15.8 °F 8.6 °F 43% 29.66 in 10.0 mi NW 18.4 mph 26.5 mph N/A   Clear
4:16 PM 28.4 °F 15.1 °F 8.6 °F 43% 29.65 in 10.0 mi NNW 20.7 mph 26.5 mph N/A   Clear
4:36 PM 28.4 °F 14.7 °F 8.6 °F 43% 29.65 in 10.0 mi NW 21.9 mph 28.8 mph N/A   Clear
4:56 PM 28.4 °F 15.8 °F 8.6 °F 43% 29.65 in 10.0 mi NNW 18.4 mph 27.6 mph N/A   Clear
5:16 PM 28.4 °F 14.7 °F 10.4 °F 47% 29.65 in 10.0 mi NW 21.9 mph 26.5 mph N/A   Clear
5:36 PM 28.4 °F 16.2 °F 8.6 °F 43% 29.66 in 10.0 mi NNW 17.3 mph 24.2 mph N/A   Clear
5:56 PM 28.4 °F 17.5 °F 8.6 °F 43% 29.66 in 10.0 mi WNW 13.8 mph 23.0 mph N/A   Clear
6:16 PM 28.4 °F 18.0 °F 8.6 °F 43% 29.67 in 10.0 mi NW 12.7 mph 20.7 mph N/A   Clear
6:36 PM 28.4 °F 17.5 °F 6.8 °F 40% 29.67 in 10.0 mi West 13.8 mph 20.7 mph N/A   Clear
6:56 PM 28.4 °F 21.2 °F 6.8 °F 40% 29.69 in 10.0 mi NW 6.9 mph - N/A   Clear
7:16 PM 28.4 °F 21.2 °F 6.8 °F 40% 29.68 in 10.0 mi West 6.9 mph - N/A   Clear
7:36 PM 28.4 °F 23.3 °F 6.8 °F 40% 29.69 in 10.0 mi NW 4.6 mph - N/A   Clear
7:56 PM 28.4 °F 20.4 °F 6.8 °F 40% 29.68 in 10.0 mi NNW 8.1 mph - N/A   Clear
8:16 PM 28.4 °F 23.3 °F 6.8 °F 40% 29.68 in 10.0 mi WNW 4.6 mph 19.6 mph N/A   Clear
8:36 PM 28.4 °F 24.6 °F 3.2 °F 34% 29.69 in 10.0 mi East 3.5 mph 18.4 mph N/A   Clear
8:56 PM 26.6 °F 14.7 °F 8.6 °F 47% 29.68 in 10.0 mi North 15.0 mph 31.1 mph N/A   Clear
9:16 PM 26.6 °F 13.4 °F 6.8 °F 43% 29.67 in 10.0 mi NNW 18.4 mph 33.4 mph N/A   Clear
9:36 PM 26.6 °F 12.0 °F 6.8 °F 43% 29.66 in 10.0 mi North 23.0 mph 29.9 mph N/A   Clear
9:56 PM 26.6 °F 13.4 °F 8.6 °F 47% 29.67 in 10.0 mi NNW 18.4 mph 25.3 mph N/A   Clear
10:16 PM 24.8 °F 7.9 °F 6.8 °F 46% 29.65 in 10.0 mi NNW 29.9 mph 39.1 mph N/A   Clear
10:36 PM 24.8 °F 12.4 °F 8.6 °F 50% 29.67 in 10.0 mi NW 15.0 mph 33.4 mph N/A   Clear
10:56 PM 26.6 °F 11.7 °F 5.0 °F 40% 29.67 in 10.0 mi North 24.2 mph 32.2 mph N/A   Clear
11:16 PM 26.6 °F 18.2 °F 6.8 °F 43% 29.66 in 10.0 mi West 8.1 mph 26.5 mph N/A   Clear
11:36 PM 26.6 °F 15.7 °F 6.8 °F 43% 29.64 in 10.0 mi West 12.7 mph 19.6 mph N/A   Clear
11:56 PM 26.6 °F 13.4 °F 5.0 °F 40% 29.65 in 10.0 mi WSW 18.4 mph 28.8 mph N/A   Clear